Powrót do katalogu

ONEWEB-0246

AktywnyŁącznośćPO
NORAD 48786·PAYLOAD·🇬🇧 United Kingdom

Wystrzelony May 28, 2021 z Vostochny Cosmodrome

Loading…

Następne Przeloty (najbliższe 24 godziny)

TLE

ŚwieżeSource: CelesTrak SupGP

Epoka: Sep 14, 2026, 16:59 UTC

1 48786C 21045V   26257.70814075 -.00000215  00000+0 -57056-3 0  2571
2 48786  87.8995 241.3438 0002117  84.4839 328.9151 13.15549173    12

Śledź ONEWEB-0246 w czasie rzeczywistym z AllMySat

Download on the App Store